When you browse on this site, cookies collect data to enhance your experience and personalize the content and advertising you see.
Visit our Privacy Policy to learn more. By continuing to use the site, you agree to this use of cookies and data.
  • în România
  • Lista ţărilor
  • Pe 7 zile
  • Temperatura apei
  • Hartă satelitară
  • Meteo pe hartă
  • Widget-uri
  • user-avatar
    Intrare

    Meteo pe oră la Wicklow

    Astăzi, 21 Ianuarie, Luni

    Timp Temperatura Precipitaţii Vânt Presiune Umiditate
    00:00 -3°C° 0 mm 2 m/s 724 mmHg 91%
    01:00 -1°C° 0 mm 1 m/s 723 mmHg 91%
    02:00 -1°C° 0 mm 1 m/s 723 mmHg 91%
    03:00 -1°C° 0 mm 1 m/s 723 mmHg 90%
    04:00 -1°C° 0 mm 1 m/s 722 mmHg 89%
    05:00 -1°C° 0 mm 1 m/s 722 mmHg 89%
    06:00 -1°C° 0 mm 1 m/s 721 mmHg 88%
    07:00 -3°C° 0 mm 2 m/s 721 mmHg 87%
    08:00 -3°C° 0 mm 2 m/s 721 mmHg 86%
    09:00 -4°C° 0 mm 3 m/s 720 mmHg 85%
    10:00 -2°C° 0 mm 4 m/s 719 mmHg 82%
    11:00 -1°C° 0 mm 5 m/s 719 mmHg 79%
    12:00 -1°C° 0 mm 6 m/s 718 mmHg 77%
    13:00 -1°C° 0.2 mm 7 m/s 716 mmHg 79%
    14:00 0°C° 0.2 mm 7 m/s 715 mmHg 82%
    15:00 0°C° 0.2 mm 8 m/s 713 mmHg 85%
    16:00 0°C° 1.2 mm 8 m/s 712 mmHg 87%
    17:00 0°C° 1.2 mm 9 m/s 711 mmHg 89%
    18:00 -1°C° 1.2 mm 9 m/s 710 mmHg 91%
    19:00 -2°C° 0.2 mm 8 m/s 710 mmHg 88%
    20:00 -3°C° 0.2 mm 7 m/s 710 mmHg 85%
    21:00 -4°C° 0.2 mm 6 m/s 709 mmHg 82%
    22:00 -4°C° 0 mm 6 m/s 709 mmHg 82%
    23:00 -4°C° 0 mm 7 m/s 709 mmHg 83%

    Mâine, 22 Ianuarie, Marţi

    Timp Temperatura Precipitaţii Vânt Presiune Umiditate
    00:00 -4°C° 0 mm 7 m/s 710 mmHg 84%
    01:00 -4°C° 0 mm 7 m/s 709 mmHg 83%
    02:00 -5°C° 0 mm 6 m/s 709 mmHg 83%
    03:00 -5°C° 0 mm 6 m/s 708 mmHg 83%
    04:00 -5°C° 0 mm 6 m/s 708 mmHg 85%
    05:00 -5°C° 0 mm 6 m/s 708 mmHg 87%
    06:00 -5°C° 0 mm 6 m/s 707 mmHg 89%
    07:00 -5°C° 0 mm 5 m/s 707 mmHg 87%
    08:00 -5°C° 0 mm 5 m/s 707 mmHg 86%
    09:00 -5°C° 0 mm 5 m/s 707 mmHg 85%
    10:00 -4°C° 0 mm 6 m/s 707 mmHg 81%
    11:00 -3°C° 0 mm 6 m/s 708 mmHg 77%
    12:00 -3°C° 0 mm 6 m/s 708 mmHg 73%
    13:00 -3°C° 0.1 mm 6 m/s 708 mmHg 72%
    14:00 -3°C° 0.1 mm 6 m/s 708 mmHg 72%
    15:00 -3°C° 0.1 mm 6 m/s 708 mmHg 71%
    16:00 -4°C° 0 mm 5 m/s 708 mmHg 76%
    17:00 -4°C° 0 mm 4 m/s 708 mmHg 81%
    18:00 -5°C° 0 mm 4 m/s 708 mmHg 86%
    19:00 -5°C° 0 mm 3 m/s 708 mmHg 87%
    20:00 -5°C° 0 mm 3 m/s 708 mmHg 89%
    21:00 -6°C° 0 mm 3 m/s 708 mmHg 91%
    22:00 -6°C° 0 mm 3 m/s 708 mmHg 91%
    23:00 -6°C° 0 mm 3 m/s 709 mmHg 91%

    Poimâine, 23 Ianuarie, Miercuri

    Timp Temperatura Precipitaţii Vânt Presiune Umiditate
    00:00 -6°C° 0 mm 3 m/s 709 mmHg 92%
    01:00 -5°C° 0 mm 3 m/s 709 mmHg 91%
    02:00 -5°C° 0 mm 3 m/s 709 mmHg 91%
    03:00 -5°C° 0 mm 3 m/s 709 mmHg 91%
    04:00 -5°C° 0 mm 3 m/s 710 mmHg 92%
    05:00 -5°C° 0 mm 3 m/s 710 mmHg 92%
    06:00 -3°C° 0 mm 2 m/s 710 mmHg 93%
    07:00 -3°C° 0 mm 2 m/s 710 mmHg 94%
    08:00 -3°C° 0 mm 2 m/s 711 mmHg 94%
    09:00 -2°C° 0 mm 2 m/s 712 mmHg 94%
    10:00 -1°C° 0 mm 2 m/s 712 mmHg 91%
    11:00 +1°C° 0 mm 2 m/s 713 mmHg 87%
    12:00 +2°C° 0 mm 2 m/s 713 mmHg 83%
    13:00 +2°C° 0 mm 2 m/s 713 mmHg 83%
    14:00 +2°C° 0 mm 2 m/s 713 mmHg 83%
    15:00 +2°C° 0 mm 2 m/s 713 mmHg 83%
    16:00 +1°C° 0 mm 2 m/s 713 mmHg 87%
    17:00 -1°C° 0 mm 2 m/s 714 mmHg 91%
    18:00 0°C° 0 mm 1 m/s 714 mmHg 96%
    19:00 0°C° 0 mm 1 m/s 714 mmHg 95%
    20:00 0°C° 0 mm 1 m/s 715 mmHg 94%
    21:00 -1°C° 0 mm 1 m/s 715 mmHg 94%
    22:00 0°C° 0 mm 1 m/s 715 mmHg 92%
    23:00 0°C° 0 mm 1 m/s 716 mmHg 89%

    24 Ianuarie, Joi

    Timp Temperatura Precipitaţii Vânt Presiune Umiditate
    00:00 +1°C° 0 mm 1 m/s 716 mmHg 87%
    01:00 -1°C° 0.3 mm 2 m/s 716 mmHg 88%
    02:00 -1°C° 0.3 mm 2 m/s 716 mmHg 90%
    03:00 0°C° 0.3 mm 3 m/s 716 mmHg 91%
    04:00 0°C° 0.5 mm 3 m/s 716 mmHg 93%
    05:00 +1°C° 0.5 mm 3 m/s 716 mmHg 95%
    06:00 +1°C° 0.5 mm 3 m/s 716 mmHg 96%
    07:00 +2°C° 0.9 mm 3 m/s 716 mmHg 97%
    08:00 +2°C° 0.9 mm 3 m/s 716 mmHg 97%
    09:00 +3°C° 0.9 mm 3 m/s 716 mmHg 98%
    10:00 +4°C° 0 mm 4 m/s 717 mmHg 96%
    11:00 +5°C° 0 mm 4 m/s 717 mmHg 95%
    12:00 +6°C° 0 mm 5 m/s 717 mmHg 94%
    13:00 +6°C° 0 mm 5 m/s 717 mmHg 93%
    14:00 +5°C° 0 mm 6 m/s 717 mmHg 93%
    15:00 +5°C° 0 mm 6 m/s 717 mmHg 92%
    16:00 +5°C° 0 mm 5 m/s 718 mmHg 93%
    17:00 +5°C° 0 mm 5 m/s 718 mmHg 93%
    18:00 +3°C° 0 mm 5 m/s 718 mmHg 93%
    19:00 +4°C° 0 mm 4 m/s 719 mmHg 94%
    20:00 +3°C° 0 mm 4 m/s 719 mmHg 94%
    21:00 +3°C° 0 mm 3 m/s 719 mmHg 94%
    22:00 +3°C° 0 mm 3 m/s 719 mmHg 95%
    23:00 +3°C° 0 mm 3 m/s 719 mmHg 96%

    25 Ianuarie, Vineri

    Timp Temperatura Precipitaţii Vânt Presiune Umiditate
    00:00 +3°C° 0 mm 3 m/s 719 mmHg 96%
    01:00 +3°C° 0 mm 3 m/s 719 mmHg 96%
    02:00 +3°C° 0 mm 3 m/s 719 mmHg 96%
    03:00 +3°C° 0 mm 4 m/s 719 mmHg 95%
    04:00 +3°C° 0 mm 4 m/s 718 mmHg 95%
    05:00 +3°C° 0 mm 4 m/s 718 mmHg 95%
    06:00 +2°C° 0 mm 5 m/s 718 mmHg 95%
    07:00 +2°C° 0 mm 5 m/s 718 mmHg 95%
    08:00 +3°C° 0 mm 5 m/s 718 mmHg 94%
    09:00 +3°C° 0 mm 5 m/s 718 mmHg 93%
    10:00 +3°C° 0 mm 6 m/s 718 mmHg 92%
    11:00 +4°C° 0 mm 6 m/s 718 mmHg 91%
    12:00 +5°C° 0 mm 6 m/s 718 mmHg 90%
    13:00 +5°C° 0.1 mm 6 m/s 717 mmHg 91%
    14:00 +5°C° 0.1 mm 6 m/s 717 mmHg 91%
    15:00 +5°C° 0.1 mm 6 m/s 717 mmHg 92%
    16:00 +6°C° 0.2 mm 5 m/s 716 mmHg 93%
    17:00 +6°C° 0.2 mm 5 m/s 716 mmHg 94%
    18:00 +6°C° 0.2 mm 5 m/s 716 mmHg 95%
    19:00 +6°C° 0.1 mm 4 m/s 716 mmHg 96%
    20:00 +7°C° 0.1 mm 3 m/s 715 mmHg 96%
    21:00 +6°C° 0.1 mm 2 m/s 715 mmHg 97%
    22:00 +7°C° 0.8 mm 3 m/s 714 mmHg 96%
    23:00 +6°C° 0.8 mm 5 m/s 714 mmHg 96%

    26 Ianuarie, Sâmbătă

    Timp Temperatura Precipitaţii Vânt Presiune Umiditate
    00:00 +5°C° 0.8 mm 6 m/s 713 mmHg 95%
    01:00 +5°C° 0.7 mm 6 m/s 712 mmHg 95%
    02:00 +5°C° 0.7 mm 6 m/s 711 mmHg 94%
    03:00 +5°C° 0.7 mm 6 m/s 710 mmHg 94%
    04:00 +5°C° 0.8 mm 6 m/s 709 mmHg 94%
    05:00 +5°C° 0.8 mm 6 m/s 707 mmHg 95%
    06:00 +5°C° 0.8 mm 5 m/s 706 mmHg 95%
    07:00 +2°C° 4.1 mm 7 m/s 706 mmHg 93%
    08:00 0°C° 4.1 mm 9 m/s 706 mmHg 91%
    09:00 -3°C° 4.1 mm 11 m/s 706 mmHg 89%
    10:00 -3°C° 0.3 mm 10 m/s 707 mmHg 86%
    11:00 -3°C° 0.3 mm 10 m/s 708 mmHg 84%
    12:00 -1°C° 0.3 mm 9 m/s 709 mmHg 82%
    13:00 -1°C° 0 mm 9 m/s 710 mmHg 80%
    14:00 -1°C° 0 mm 8 m/s 710 mmHg 77%
    15:00 -1°C° 0 mm 8 m/s 711 mmHg 75%
    16:00 -2°C° 0 mm 7 m/s 711 mmHg 77%
    17:00 -3°C° 0 mm 7 m/s 711 mmHg 79%
    18:00 -4°C° 0 mm 6 m/s 711 mmHg 81%
    19:00 -4°C° 0 mm 6 m/s 711 mmHg 81%
    20:00 -4°C° 0 mm 6 m/s 711 mmHg 82%
    21:00 -4°C° 0 mm 6 m/s 712 mmHg 82%
    22:00 -4°C° 0 mm 5 m/s 711 mmHg 83%
    23:00 -4°C° 0 mm 5 m/s 711 mmHg 84%
    Arată mai mult